Wind_Speed
11 10 10 11 11 11 12 12 12 13 13 14 14 14 14 14 14 14 14 14 14 14 14 15 15 14 14 14 15 14 14 14 14 14 14 14 14 15 15 16 17 17 16
11 11 11 11 11 11 11 12 12 12 13 13 13 13 13 14 15 14 14 14 14 14 14 14 14 14 14 14 14 14 14 14 14 14 14 13 13 14 14 15 16 16 17
11 11 11 11 11 12 12 12 12 12 12 12 12 13 13 14 14 14 14 14 14 14 14 14 14 14 14 14 14 13 13 14 14 14 14 14 14 14 15 15 16 16 17
11 11 11 11 11 12 12 12 12 12 12 12 13 14 14 15 15 14 14 14 14 15 15 15 15 15 15 15 14 14 14 14 14 14 14 15 15 16 16 16 16 17 17
11 11 11 11 12 12 12 12 13 13 13 13 13 14 14 15 15 15 14 14 14 14 15 16 16 16 15 15 15 15 14 14 14 15 15 15 15 16 16 17 17 17 18
11 11 12 12 13 13 13 13 13 13 13 13 14 14 14 14 15 14 14 14 14 14 15 15 15 16 16 16 15 16 15 16 15 15 16 16 16 16 16 17 17 18 19
11 11 12 12 13 13 13 13 13 13 13 13 13 14 14 14 14 14 14 14 14 14 15 15 15 16 17 17 16 16 16 15 15 16 16 16 17 17 17 17 18 18 19
11 11 12 12 13 13 13 13 13 12 13 13 13 13 13 13 14 14 14 14 14 14 15 15 15 16 16 16 16 16 16 16 16 17 17 17 18 18 18 18 18 19 19
11 12 12 12 13 13 13 13 13 13 13 13 13 13 13 13 13 13 14 14 14 14 14 15 15 16 16 16 17 17 16 16 17 17 17 18 18 19 19 19 19 20 20
12 12 13 13 13 13 13 13 14 14 14 13 13 13 13 13 13 14 14 14 14 14 15 16 16 16 16 17 17 17 18 17 17 17 17 17 18 18 19 19 19 20 20
13 13 13 13 14 13 14 14 14 13 13 13 13 13 13 13 13 13 14 15 15 15 15 16 17 17 18 17 17 17 18 17 17 17 18 18 18 18 19 19 19 20 20
13 14 14 14 14 14 14 14 14 14 14 14 14 14 14 14 14 14 14 15 15 16 16 17 18 18 17 17 18 18 18 18 18 18 18 18 18 18 18 19 19 19 19
14 14 14 14 15 15 15 15 14 15 15 15 15 15 15 15 16 16 16 16 16 16 17 17 17 18 18 17 18 18 18 19 18 18 18 18 18 19 19 19 19 19 19
15 16 15 15 15 16 16 15 15 15 16 16 16 16 16 17 17 17 17 18 17 17 17 17 17 18 18 18 17 18 18 18 18 18 18 18 18 18 19 20 19 19 20
16 16 16 16 17 16 17 17 16 17 17 17 17 17 17 17 17 18 18 17 17 17 17 17 18 18 18 18 18 18 19 19 18 18 19 19 19 19 19 20 20 20 21
16 16 17 17 17 17 17 17 18 18 17 17 17 17 17 17 17 17 17 17 17 17 16 16 17 17 18 18 17 18 18 19 19 18 19 19 19 19 20 20 21 21 21
18 18 18 18 18 18 18 18 18 18 18 17 17 16 16 17 17 17 17 17 16 16 16 16 17 16 16 16 17 18 19 20 20 20 20 20 19 19 19 20 20 21 22
19 19 19 19 19 19 18 18 18 18 18 17 17 17 16 16 17 17 17 17 16 15 15 15 16 16 17 17 17 18 18 20 20 19 20 20 19 19 19 20 20 21 21
20 20 20 19 19 19 19 19 18 18 18 17 17 16 16 16 17 17 18 17 17 16 16 16 17 17 17 18 18 18 18 18 18 18 18 18 18 19 19 19 20 21 21
20 20 20 19 19 19 19 19 18 18 18 18 17 17 17 16 16 16 17 17 18 17 17 17 18 18 19 19 19 18 18 19 19 18 18 18 18 18 19 19 20 20 21
20 21 20 20 19 18 18 18 18 18 18 18 17 17 17 17 16 17 17 17 17 18 18 18 18 18 18 19 19 19 19 18 19 18 18 18 19 19 19 19 20 20 21
21 21 20 20 20 19 18 18 18 18 18 18 17 17 17 17 17 17 17 17 18 18 19 19 19 19 19 19 19 19 20 20 20 20 20 20 20 20 20 20 21 20 21
21 21 21 20 20 20 19 19 19 19 19 19 19 18 18 18 17 18 18 19 18 18 18 19 19 19 20 20 20 20 20 20 20 21 21 21 21 21 21 22 22 21 21
21 21 21 20 21 21 21 20 21 20 20 20 20 20 19 19 19 19 19 19 19 19 19 19 19 19 20 21 21 21 21 21 21 21 21 21 22 21 21 22 22 22 22
22 22 21 21 22 22 22 22 22 21 21 22 22 21 21 21 21 21 20 20 20 20 20 20 20 20 20 20 21 21 21 22 21 21 21 21 21 21 21 22 22 22 22
22 22 22 22 22 22 22 22 22 22 21 22 22 23 23 23 22 22 21 22 22 21 22 22 21 21 21 21 21 22 22 22 22 22 22 22 22 22 21 22 22 22 22
Wind_Direction
278 277 278 281 282 282 282 282 282 279 277 274 269 266 264 266 267 266 266 266 266 264 261 259 257 253 253 255 254 256 254 255 256 255 253 254 254 255 257 256 256 257 259
277 278 278 281 282 284 285 283 283 280 278 275 273 270 267 266 265 265 266 267 264 262 258 255 254 254 254 254 256 256 254 254 255 256 256 256 257 258 258 256 256 257 259
277 277 280 280 281 282 284 284 283 279 278 275 272 271 270 266 265 266 265 265 264 260 259 257 253 253 252 254 254 255 255 255 256 256 257 258 259 260 259 258 258 259 259
278 278 281 280 282 283 284 285 285 282 278 275 274 275 273 270 267 267 266 265 264 260 258 257 253 250 251 252 253 256 257 256 256 259 259 259 260 262 261 261 260 259 259
280 278 280 280 284 285 283 283 285 283 279 273 271 273 272 271 268 266 265 263 264 261 257 255 252 250 250 251 254 255 256 256 257 259 261 262 262 264 263 263 263 261 260
281 279 280 284 288 289 286 284 283 282 279 275 273 272 272 271 268 267 263 262 263 261 255 251 251 251 251 250 252 255 256 257 258 259 262 263 264 265 266 265 265 264 262
282 281 281 283 289 291 291 289 285 284 279 277 273 272 271 269 268 266 265 264 263 262 256 251 250 249 248 250 253 254 255 258 259 261 262 264 266 266 268 269 268 267 266
279 281 283 285 288 291 291 292 290 286 282 278 276 275 275 272 270 267 266 265 264 263 258 252 251 251 251 252 252 254 257 259 261 262 264 265 266 267 268 269 270 270 270
280 283 285 287 288 289 290 289 288 288 285 280 277 276 275 275 271 269 266 264 264 263 257 253 255 255 255 257 258 257 259 261 263 264 267 267 268 268 268 269 271 272 269
282 283 283 286 287 287 286 288 289 289 285 279 276 274 272 273 272 269 268 263 262 261 258 257 257 257 256 256 258 259 260 262 264 267 269 270 270 271 271 271 270 270 268
283 284 284 284 284 285 285 288 291 289 286 281 278 274 271 271 271 269 267 265 263 263 260 259 257 258 259 257 257 259 260 262 264 267 270 272 272 273 273 273 271 269 269
283 283 283 283 284 285 286 287 289 287 284 281 277 274 270 270 270 268 266 266 266 265 263 260 258 258 260 258 257 259 260 263 265 267 269 271 271 274 275 273 272 271 271
284 284 282 283 284 285 284 286 287 286 284 280 277 275 272 269 269 270 270 268 268 266 264 261 259 258 258 259 261 264 265 264 265 266 268 269 271 272 274 274 273 272 273
280 282 282 283 284 285 284 284 286 286 283 281 278 276 273 271 269 271 272 271 270 268 265 262 259 257 257 258 260 263 265 264 265 266 268 269 272 274 274 273 275 276 276
279 280 281 283 285 285 284 283 284 286 285 282 279 277 275 272 271 271 271 271 270 268 265 261 258 256 256 257 260 262 261 264 265 265 267 270 272 274 275 274 275 277 278
279 279 281 283 283 283 285 285 284 285 284 284 280 278 276 274 271 270 269 271 271 269 265 259 255 256 258 259 261 263 262 265 267 268 268 270 273 275 277 276 275 277 279
279 279 280 282 283 282 282 284 284 284 283 283 281 279 277 273 270 268 268 268 269 268 264 257 254 256 261 264 264 264 263 267 270 271 271 272 274 277 279 278 277 278 279
279 279 280 281 282 281 281 281 282 283 282 282 280 278 278 275 270 266 265 265 267 267 264 258 255 256 261 264 266 266 266 266 269 270 271 272 275 277 278 280 280 280 280
279 282 282 282 280 280 279 278 279 280 281 280 279 276 274 276 273 268 266 265 265 265 263 259 256 257 260 263 265 266 266 267 267 270 272 273 275 277 279 281 281 280 280
280 282 282 281 279 279 278 278 278 278 280 281 279 274 272 272 272 270 268 267 265 264 262 261 260 261 262 261 264 266 265 266 268 270 271 272 275 278 281 283 282 281 280
280 281 282 282 279 277 277 279 278 278 279 280 279 276 273 272 272 273 272 270 267 265 264 263 263 262 263 263 264 266 267 268 268 270 271 272 275 280 284 285 285 283 282
277 279 280 281 279 278 279 280 279 279 278 278 278 276 275 274 273 274 273 272 271 268 265 263 262 261 263 265 267 268 267 267 269 270 271 273 276 279 283 286 286 286 285
278 278 279 277 277 279 279 278 277 277 277 275 274 275 274 273 273 273 274 272 271 270 268 265 262 262 264 266 268 268 268 268 268 270 271 272 275 278 282 285 286 285 285
277 276 277 276 277 278 280 279 277 277 277 276 273 273 273 272 273 273 272 269 268 269 268 264 263 266 266 267 268 268 267 268 270 271 272 274 275 278 280 283 284 286 285
275 274 275 276 277 278 280 280 280 277 276 275 274 272 272 272 273 272 271 269 266 266 267 264 264 267 268 267 267 268 268 268 270 271 273 274 275 278 281 282 283 284 286
274 272 274 276 276 276 277 278 279 279 277 274 272 272 272 271 271 272 272 270 267 266 266 264 265 268 267 266 267 269 269 269 270 271 272 274 276 278 279 281 281 283 285
Height
5845 5844 5844 5843 5843 5842 5842 5841 5841 5840 5839 5839 5839 5839 5839 5838 5838 5839 5839 5839 5839 5839 5839 5839 5839 5840 5841 5841 5842 5842 5843 5843 5844 5844 5844 5845 5845 5846 5846 5846 5847 5848 5848
5842 5842 5841 5841 5840 5839 5839 5838 5837 5837 5836 5836 5835 5835 5835 5835 5835 5835 5835 5835 5835 5835 5835 5835 5836 5836 5837 5838 5838 5839 5839 5840 5840 5841 5841 5842 5842 5842 5843 5843 5844 5844 5844
5839 5839 5838 5838 5837 5836 5836 5835 5834 5833 5833 5832 5832 5831 5831 5831 5831 5831 5831 5832 5832 5832 5832 5832 5832 5833 5834 5834 5835 5835 5836 5836 5837 5837 5838 5838 5839 5839 5840 5840 5840 5840 5840
5836 5836 5835 5835 5834 5833 5833 5832 5831 5830 5830 5829 5828 5828 5828 5827 5827 5827 5827 5828 5828 5828 5828 5829 5829 5830 5830 5831 5831 5832 5832 5833 5833 5834 5834 5835 5835 5836 5836 5836 5836 5836 5836
5833 5833 5832 5832 5831 5830 5829 5828 5828 5827 5826 5825 5825 5824 5824 5823 5823 5823 5824 5824 5824 5824 5824 5825 5825 5826 5827 5827 5828 5828 5829 5829 5830 5830 5831 5831 5831 5832 5832 5832 5832 5832 5832
5830 5830 5829 5828 5828 5827 5826 5825 5824 5823 5823 5822 5821 5821 5820 5820 5819 5819 5819 5820 5820 5820 5820 5821 5821 5822 5823 5823 5824 5825 5825 5826 5826 5827 5827 5827 5827 5828 5828 5828 5828 5828 5828
5827 5827 5826 5825 5824 5824 5823 5822 5821 5820 5819 5818 5818 5817 5816 5816 5816 5816 5815 5816 5816 5816 5816 5817 5817 5818 5818 5819 5820 5821 5821 5822 5822 5823 5823 5823 5823 5823 5824 5824 5823 5823 5823
5824 5824 5823 5822 5821 5820 5819 5818 5817 5816 5815 5815 5814 5813 5813 5813 5812 5812 5811 5812 5812 5812 5812 5813 5813 5814 5814 5815 5816 5817 5817 5818 5818 5818 5819 5819 5819 5819 5819 5819 5819 5818 5818
5821 5820 5820 5819 5818 5817 5816 5815 5814 5813 5812 5811 5810 5810 5809 5809 5808 5808 5808 5808 5808 5808 5808 5808 5809 5810 5811 5812 5812 5813 5813 5813 5814 5814 5814 5814 5814 5814 5814 5814 5814 5813 5813
5818 5817 5816 5815 5814 5813 5812 5811 5810 5809 5808 5807 5806 5806 5806 5805 5805 5804 5804 5804 5804 5804 5804 5804 5805 5806 5807 5807 5808 5808 5809 5809 5809 5809 5809 5809 5809 5809 5809 5809 5809 5808 5808
5814 5813 5812 5811 5810 5809 5808 5807 5806 5805 5804 5803 5802 5802 5801 5801 5801 5800 5800 5800 5800 5800 5800 5800 5801 5801 5802 5803 5803 5804 5804 5804 5804 5804 5804 5804 5804 5804 5804 5803 5803 5803 5803
5811 5810 5808 5807 5806 5805 5804 5803 5802 5801 5800 5799 5798 5798 5797 5797 5796 5796 5796 5795 5795 5795 5795 5796 5796 5797 5797 5798 5798 5799 5799 5799 5799 5799 5799 5799 5799 5798 5798 5798 5797 5797 5797
5807 5806 5805 5804 5802 5801 5800 5799 5798 5797 5796 5795 5794 5793 5793 5793 5792 5792 5791 5791 5790 5790 5790 5790 5791 5791 5792 5793 5793 5794 5794 5794 5794 5794 5794 5794 5793 5793 5793 5792 5792 5792 5791
5803 5802 5800 5799 5798 5797 5796 5795 5793 5792 5791 5790 5789 5789 5788 5788 5787 5787 5786 5786 5785 5785 5785 5785 5785 5786 5787 5788 5788 5789 5789 5789 5789 5789 5789 5789 5788 5788 5788 5787 5787 5786 5785
5798 5797 5796 5795 5794 5792 5791 5790 5789 5788 5786 5785 5784 5784 5783 5782 5782 5781 5781 5780 5780 5779 5779 5779 5780 5781 5782 5782 5783 5783 5784 5784 5784 5784 5784 5784 5783 5783 5782 5781 5781 5780 5779
5793 5792 5791 5790 5789 5787 5786 5785 5784 5782 5781 5780 5779 5778 5778 5777 5776 5776 5776 5775 5774 5774 5774 5774 5775 5775 5776 5777 5778 5778 5778 5779 5779 5779 5779 5778 5778 5777 5776 5776 5775 5774 5773
5788 5787 5786 5784 5783 5782 5781 5779 5778 5777 5775 5774 5773 5773 5772 5771 5771 5771 5770 5770 5769 5769 5769 5769 5770 5771 5772 5772 5773 5773 5774 5774 5773 5773 5773 5773 5772 5772 5771 5770 5769 5768 5766
5782 5781 5780 5779 5777 5776 5775 5774 5772 5771 5770 5769 5768 5767 5766 5766 5765 5765 5765 5765 5764 5764 5764 5765 5765 5767 5767 5768 5768 5769 5769 5769 5768 5768 5768 5767 5767 5766 5765 5764 5763 5761 5760
5776 5775 5774 5773 5771 5770 5769 5768 5767 5766 5765 5764 5763 5762 5761 5761 5760 5760 5760 5759 5759 5759 5760 5760 5761 5762 5763 5763 5763 5764 5763 5763 5763 5763 5762 5762 5762 5761 5760 5758 5757 5755 5754
5770 5769 5768 5767 5765 5764 5763 5762 5762 5761 5760 5758 5757 5757 5756 5756 5755 5755 5755 5754 5754 5755 5755 5755 5756 5757 5757 5758 5758 5758 5758 5758 5758 5757 5757 5757 5756 5755 5754 5753 5751 5749 5748
5764 5763 5762 5760 5759 5758 5757 5756 5756 5755 5754 5753 5752 5751 5751 5751 5750 5750 5750 5749 5749 5750 5750 5750 5751 5751 5752 5752 5753 5753 5753 5753 5752 5752 5752 5751 5751 5750 5748 5747 5745 5743 5741
5757 5756 5755 5754 5753 5753 5752 5751 5750 5750 5749 5748 5747 5747 5746 5746 5745 5745 5744 5744 5744 5744 5745 5745 5746 5746 5747 5747 5747 5747 5747 5747 5747 5747 5746 5746 5745 5744 5743 5741 5739 5737 5735
5751 5750 5749 5748 5747 5747 5746 5745 5744 5744 5743 5743 5742 5742 5741 5741 5740 5740 5739 5739 5739 5739 5739 5740 5740 5740 5741 5741 5741 5741 5741 5741 5741 5741 5740 5740 5739 5738 5736 5735 5733 5731 5729
5745 5744 5743 5742 5741 5741 5740 5739 5738 5738 5737 5736 5736 5736 5735 5735 5735 5734 5734 5734 5734 5733 5733 5734 5734 5734 5735 5735 5735 5735 5735 5735 5735 5735 5734 5734 5733 5731 5730 5728 5726 5724 5723
5738 5737 5736 5735 5735 5734 5734 5733 5732 5731 5731 5730 5730 5729 5729 5728 5728 5728 5728 5728 5728 5727 5727 5727 5728 5728 5728 5729 5729 5729 5729 5729 5729 5728 5728 5727 5726 5725 5724 5722 5720 5718 5717
5731 5730 5730 5729 5728 5728 5727 5726 5725 5725 5724 5723 5723 5723 5722 5722 5721 5721 5721 5721 5721 5721 5721 5721 5721 5722 5722 5722 5722 5722 5722 5722 5722 5722 5721 5720 5720 5718 5717 5716 5714 5712 5710